[Iaude] MPEC L111: 2024 LX2 [a=1.91,e=0.45,i=8.3,H=21.3]
    mpec at cfa.harvard.edu 
    mpec at cfa.harvard.edu
       
    Mon Jun 10 21:16:34 EDT 2024
    
    
  
M.P.E.C. 2024-L111                                Issued 2024 June 11, 01:15 UT
     The Minor Planet Electronic Circulars contain information on unusual
         minor planets, routine data on comets and natural satellites,
         and occasional editorial announcements.  They are published
    on behalf of Division F of the International Astronomical Union by the
          Minor Planet Center, Smithsonian Astrophysical Observatory,
                          Cambridge, MA 02138, U.S.A.
			  
             Prepared using the Tamkin Foundation Computer Network
                              MPC at CFA.HARVARD.EDU
            URL https://www.minorplanetcenter.net/    ISSN 1523-6714
                                    2024 LX2                                    
     The following astrometry was found among the isolated tracklets and linked
by R. Weryk.
Observations:
     K24L02X*1C2024 06 03.41222521 20 34.278+13 55 37.16         21.72GVEL111G96
     K24L02X 1C2024 06 03.41747321 20 34.483+13 55 41.30         20.98GVEL111G96
     K24L02X 1C2024 06 03.42272521 20 34.624+13 55 45.34         21.20GVEL111G96
     K24L02X  C2024 06 05.52248521 22 00.045+14 20 00.58         21.14wXEL111F52
     K24L02X  C2024 06 05.53427421 22 00.349+14 20 08.47         21.45wXEL111F52
     K24L02X  C2024 06 05.54604921 22 00.672+14 20 16.49         21.29wXEL111F52
     K24L02X  C2024 06 05.55784621 22 00.980+14 20 24.37         20.98wXEL111F52
     K24L02X  C2024 06 09.53986021 23 56.539+14 58 49.67         20.97wXEL111F52
     K24L02X  C2024 06 09.55102921 23 56.670+14 58 55.37         20.85wXEL111F52
     K24L02X  C2024 06 09.56215521 23 56.794+14 59 01.19         20.86wXEL111F52
     K24L02X  C2024 06 09.57333021 23 56.908+14 59 07.03         21.13wXEL111F52
Observer details:
F52 Pan-STARRS 2, Haleakala.  Observers J. Herman, T. Lowe, P. Minguez, A.
    Schultz, I. Smith.  Measurers K. Chambers, T. de Boer, J. Fairlamb, H.
    Gao, M. Huber, C.-C. Lin, E. Magnier, Y. Ramanjooloo, R. Wainscoat, R.
    Weryk.  1.8-m Ritchey-Chretien + CCD.
G96 Mt. Lemmon Survey.  Observer J. B. Fazekas.  Measurers T. Beuden, V. F.
    Carvajal, D. Fay, J. B. Fazekas, D. C. Fuls, A. R. Gibbs, A. D. Grauer, H.
    Groeller, J. K. Hogan, R. A. Kowalski, S. M. Larson, G. J. Leonard, D.
    Rankin, R. L. Seaman, F. C. Shelly, K. W. Wierzchos.  1.5-m reflector +
    10K CCD.
Orbital elements:
2024 LX2                                                 Earth MOID = 0.0510 AU
Epoch 2024 Mar. 31.0 TT = JDT 2460400.5                 Veres                   
M 350.24825              (2000.0)            P               Q                  
n   0.37265456     Peri.   21.77774     -0.69254351     +0.71888350             
a   1.9124867      Node   204.51846     -0.68133003     -0.67912685             
e   0.4546133      Incl.    8.30150     -0.23700819     -0.14830117             
P   2.64           H   21.32          G   0.15           U   9                  
Residuals in seconds of arc
240603 G96  0.0   0.1-    240605 F52  0.1-  0.1-    240609 F52  0.0   0.1-
240603 G96  0.3+  0.1+    240605 F52  0.0   0.0     240609 F52  0.0   0.0
240603 G96  0.4-  0.2+    240605 F52  0.1+  0.0     240609 F52  0.1-  0.0
240605 F52  0.1+  0.0     240609 F52  0.0   0.1+
Ephemeris:
2024 LX2                 a,e,i = 1.91, 0.45, 8                   q = 1.0430
Date    TT    R. A. (2000) Decl.     Delta      r    Elong.  Phase     V
2024 05 12    20 46 44.2 +06 35 59   0.2414  1.0583    94.9    72.0    20.9
...
2024 05 27    21 13 16.5 +12 08 57   0.2876  1.0991    99.8    65.3    21.1
...
2024 06 04    21 20 58.9 +14 02 49   0.3089  1.1297   104.0    60.6    21.2
...
2024 06 10    21 24 05.4 +15 02 42   0.3233  1.1561   107.9    56.7    21.2
2024 06 11    21 24 23.6 +15 10 33   0.3256  1.1607   108.5    56.0    21.2
2024 06 12    21 24 38.2 +15 17 48   0.3279  1.1655   109.3    55.3    21.2
...
2024 06 18    21 24 53.0 +15 48 22   0.3409  1.1951   113.8    51.1    21.3
...
2024 06 26    21 22 08.9 +15 53 59   0.3577  1.2376   120.6    45.0    21.3
...
2024 07 11    21 09 10.0 +14 09 50   0.3927  1.3244   135.2    32.8    21.3
M. P. C. Staff               (C) Copyright 2024 MPC           M.P.E.C. 2024-L111
    
    
More information about the Iaude
mailing list